TimeEST,TemperatureF,Dew PointF,Humidity,Sea Level PressureIn,VisibilityMPH,Wind Direction,Wind SpeedMPH,Gust SpeedMPH,PrecipitationIn,Events,Conditions,WindDirDegrees,DateUTC
12:53 AM,71.1,59.0,66,30.02,10.0,Calm,Calm,-,N/A,,Clear,0,2012-11-05 05:53:00
1:53 AM,73.0,60.1,64,30.01,10.0,NNE,4.6,-,N/A,,Clear,20,2012-11-05 06:53:00
2:53 AM,73.9,60.1,62,29.99,10.0,NNE,5.8,-,N/A,,Clear,20,2012-11-05 07:53:00
3:53 AM,73.0,64.0,73,29.99,10.0,NNE,5.8,-,N/A,,Clear,20,2012-11-05 08:53:00
4:53 AM,73.0,63.0,71,29.98,10.0,NNE,6.9,-,N/A,,Clear,30,2012-11-05 09:53:00
5:53 AM,73.0,62.1,68,30.00,10.0,NNE,5.8,-,N/A,,Clear,20,2012-11-05 10:53:00
6:53 AM,73.0,62.1,68,30.02,10.0,NNE,5.8,-,N/A,,Clear,20,2012-11-05 11:53:00
7:53 AM,73.0,62.1,68,30.01,10.0,NNE,6.9,-,N/A,,Clear,30,2012-11-05 12:53:00
8:53 AM,73.9,62.1,66,30.02,10.0,NNE,6.9,-,N/A,,Clear,30,2012-11-05 13:53:00
9:53 AM,75.0,62.1,64,30.02,10.0,NE,5.8,-,N/A,,Clear,40,2012-11-05 14:53:00
10:53 AM,75.9,63.0,64,30.01,10.0,NE,6.9,-,N/A,,Clear,40,2012-11-05 15:53:00
11:53 AM,78.1,63.0,60,29.99,10.0,NE,8.1,-,N/A,,Clear,40,2012-11-05 16:53:00
12:53 PM,80.1,62.1,54,29.97,10.0,Variable,4.6,-,N/A,,Clear,0,2012-11-05 17:53:00
1:53 PM,78.1,62.1,58,29.95,10.0,North,4.6,-,N/A,,Mostly Cloudy,360,2012-11-05 18:53:00
2:53 PM,77.0,62.1,60,29.95,10.0,Variable,4.6,-,N/A,,Clear,0,2012-11-05 19:53:00
3:53 PM,75.9,60.1,58,29.95,10.0,Variable,3.5,-,N/A,,Clear,0,2012-11-05 20:53:00
4:53 PM,75.0,59.0,57,29.96,10.0,Calm,Calm,-,N/A,,Clear,0,2012-11-05 21:53:00
5:53 PM,73.0,60.1,64,29.96,10.0,Calm,Calm,-,N/A,,Clear,0,2012-11-05 22:53:00
6:53 PM,73.9,60.1,62,29.96,10.0,Calm,Calm,-,N/A,,Mostly Cloudy,0,2012-11-05 23:53:00
7:53 PM,73.0,60.1,64,29.98,10.0,Calm,Calm,-,N/A,,Mostly Cloudy,0,2012-11-06 00:53:00
8:53 PM,73.9,61.0,64,29.98,10.0,NNE,3.5,-,N/A,,Overcast,30,2012-11-06 01:53:00
9:53 PM,73.0,61.0,66,29.97,10.0,Calm,Calm,-,N/A,,Scattered Clouds,0,2012-11-06 02:53:00
10:53 PM,73.0,61.0,66,29.96,10.0,Calm,Calm,-,N/A,,Mostly Cloudy,0,2012-11-06 03:53:00
11:53 PM,72.0,63.0,73,29.94,10.0,Calm,Calm,-,N/A,,Mostly Cloudy,0,2012-11-06 04:53:00